This demonstration page uses our WeatherBlox Daily Observations layout. Learn more.

Left ArrowRight Arrow

34.16533, -84.80231

Hourly Observations for September 5, 2017

Temp ( °F °C ) Dew Point ( °F °C ) Humidity (%) Winds ( mph kmh ) Pressure ( in mb ) Visibility ( mi km ) Precip ( " mm )
12:53 am 00:53 Clear 64 17.8 64 17.8 100 100 Calm 29.99 1016 8 13 0.00 0.00
1:53 am 01:53 Clear 64 17.8 64 17.8 100 100 Calm 29.99 1016 8 13 0.00 0.00
2:53 am 02:53 Mostly Clear 64 17.8 64 17.8 100 100 Calm 29.98 1015 9 14 0.00 0.00
3:53 am 03:53 Clear 63 17.2 63 17.2 100 100 Calm 29.98 1015 7 11 0.00 0.00
4:53 am 04:53 Clear with Mist and Fog 62 16.7 62 16.7 100 100 Calm 29.97 1015 6 10 0.00 0.00
5:53 am 05:53 Clear 61 16.1 61 16.1 100 100 Calm 29.97 1015 7 11 0.00 0.00
6:53 am 06:53 Clear 62 16.7 62 16.7 100 100 Calm 29.97 1015 8 13 0.00 0.00
7:53 am 07:53 Sunny 63 17.2 63 17.2 100 100 Calm 29.98 1015 7 11 0.00 0.00
8:53 am 08:53 Sunny 68 20 67 19.4 96 96 N 3 6 29.98 1015 9 14 0.00 0.00
9:53 am 09:53 Sunny 74 23.3 69 20.6 85 85 Calm 29.98 1015 10 16 0.00 0.00
10:53 am 10:53 Sunny 79 26.1 68 20 69 69 Calm 29.97 1015 10 16 0.00 0.00
11:53 am 11:53 Mostly Sunny 81 27.2 69 20.6 67 67 VRB 5 7 29.95 1014 10 16 0.00 0.00
12:53 pm 12:53 Partly Cloudy 82 27.8 70 21.1 67 67 VRB 3 6 29.93 1014 10 16 0.00 0.00
1:53 pm 13:53 Mostly Cloudy 83 28.3 70 21.1 65 65 VRB 3 6 29.90 1013 10 16 0.00 0.00
2:53 pm 14:53 Mostly Cloudy 85 29.4 68 20 57 57 VRB 7 11 29.87 1011 10 16 0.00 0.00
3:53 pm 15:53 Sunny 87 30.6 69 20.6 55 55 VRB 6 9 29.85 1011 10 16 0.00 0.00
4:53 pm 16:53 Mostly Sunny 87 30.6 69 20.6 55 55 S 9 15 29.81 1010 10 16 0.00 0.00
5:23 pm 17:23 Sunny with Nearby Thunderstorms 84 28.9 69 20.6 61 61 SSW 5 7 29.83 1010 10 16 0.00 0.00
5:39 pm 17:39 Sunny 83 28.3 70 21.1 65 65 VRB 5 7 29.85 1011 10 16 0.00 0.00
5:50 pm 17:50 Sunny with Nearby Thunderstorms 82 28 70 21 66 66 Calm 29.85 1011 10 16 0.00 0.00
5:53 pm 17:53 Partly Cloudy with Nearby Thunderstorms 83 28.3 70 21.1 65 65 VRB 3 6 29.83 1010 10 16 0.00 0.00
6:09 pm 18:09 Mostly Cloudy with Thunderstorms 81 27.2 69 20.6 67 67 NNW 8 13 29.85 1011 10 16 0.00 0.00
6:26 pm 18:26 Cloudy with Strong Thunderstorms 73 22.8 71 21.7 94 94 VRB 5 7 29.88 1012 2 3 0.08 2.03
6:44 pm 18:44 Cloudy with Thunderstorms 70 21.1 70 21.1 100 100 NNW 9 15 29.91 1013 3 5 0.21 5.33
6:53 pm 18:53 Cloudy with Thunderstorms 71 21.7 70 21.1 96 96 VRB 5 7 29.88 1012 8 13 0.22 5.59
6:56 pm 18:56 Cloudy with Nearby Thunderstorms 71 21.7 71 21.7 100 100 NNW 3 6 29.91 1013 8 13 0.00 0.03
7:14 pm 19:14 Cloudy with Nearby Thunderstorms 71 21.7 71 21.7 100 100 NNW 3 6 29.91 1013 5 8 0.02 0.51
7:34 pm 19:34 Mostly Cloudy with Thunderstorms 70 21.1 70 21.1 100 100 ESE 6 9 29.91 1013 6 10 0.05 1.27
7:46 pm 19:46 Partly Cloudy with Light Rain 70 21.1 70 21.1 100 100 ESE 6 9 29.91 1013 9 14 0.05 1.27
7:53 pm 19:53 Partly Cloudy 70 21.1 70 21.1 100 100 ESE 3 6 29.87 1012 9 14 0.05 1.27
8:18 pm 20:18 Partly Cloudy with Nearby Thunderstorms 70 21.1 70 21.1 100 100 Calm 29.94 1014 7 11 0.01 0.25
8:33 pm 20:33 Mostly Cloudy with Light Rain 70 21.1 70 21.1 100 100 Calm 29.97 1015 6 10 0.03 0.76
8:40 pm 20:40 Mostly Cloudy with Light Rain 70 21.1 70 21.1 100 100 Calm 29.97 1015 8 13 0.03 0.76
8:51 pm 20:51 Mostly Cloudy 70 21 70 21 100 100 SSE 6 9 29.94 1014 8 13 0.03 0.76
8:53 pm 20:53 Mostly Cloudy 70 21.1 70 21.1 100 100 SE 6 9 29.91 1013 8 13 0.03 0.76
8:56 pm 20:56 Partly Cloudy 69 20.6 69 20.6 100 100 SE 3 6 29.94 1014 7 11 0.00 0.00
9:04 pm 21:04 Mostly Clear 70 21.1 70 21.1 100 100 Calm 29.94 1014 7 11 0.00 0.00
9:41 pm 21:41 Mostly Cloudy 70 21.1 70 21.1 100 100 Calm 29.94 1014 8 13 0.00 0.00
9:53 pm 21:53 Cloudy 69 20.6 69 20.6 100 100 N 3 6 29.92 1013 7 11 0.00 0.00
10:04 pm 22:04 Cloudy 70 21.1 70 21.1 100 100 Calm 29.94 1014 8 13 0.00 0.00
10:31 pm 22:31 Cloudy 69 20.6 69 20.6 100 100 Calm 29.94 1014 9 14 0.00 0.00
10:50 pm 22:50 Mostly Cloudy 68 20 68 20 100 100 SSE 5 7 29.94 1014 9 14 0.00 0.00
10:53 pm 22:53 Mostly Cloudy 68 20 68 20 100 100 SSE 6 9 29.89 1012 9 14 0.00 0.00
11:34 pm 23:34 Mostly Cloudy with Nearby Thunderstorms 68 20 68 20 100 100 Calm 29.94 1014 6 10 0.00 0.00
11:53 pm 23:53 Cloudy with Nearby Thunderstorms 68 20 68 20 100 100 Calm 29.91 1013 6 10 0.00 0.00

Powered by AerisWeather